Weather History for KBUY - December, 2012

Change the Weather History Date:

Wednesday, December 19, 2012

  Actual Average Record
Temperature  
Mean Temperature 47 °F -  
Max Temperature 64 °F 52 °F 77 °F (1984)
Min Temperature 30 °F 29 °F 14 °F (1975)
Degree Days  
Heating Degree Days 18    
Moisture  
Dew Point 33 °F    
Average Humidity 67    
Maximum Humidity 96    
Minimum Humidity 33    
Precipitation  
Precipitation 0.00 in - - ()
Sea Level Pressure  
Sea Level Pressure 30.00 in    
Wind  
Wind Speed 2 mph (WSW)    
Max Wind Speed 14 mph    
Max Gust Speed -    
Visibility 10 miles    
Events      
Averages and records for this station are not official NWS values.
T = Trace of Precipitation, MM = Missing Value Source: NWS Daily Summary

Daily Weather History Graph

Daily Weather History Graph

Search for Another Location

Airport or City:

Trip Planner

Search our weather history database for the weather conditions in past years. The results will help you decide how hot, cold, wet, or windy it might be!

Date:

Astronomy

Dec. 19, 2012 Rise Set
Actual Time 7:24 AM EST 5:06 PM EST
Civil Twilight 6:55 AM EST 5:35 PM EST
Nautical Twilight 6:23 AM EST 6:07 PM EST
Astronomical Twilight 5:51 AM EST 6:38 PM EST
Moon 11:44 AM EST (12/19) No Moon Set
Length of Visible Light 10h 39m
Length of Day
9h 42m
Waxing Crescent, 45% of the Moon is Illuminated
Dec 19
Waxing Crescent
Dec 20
First Quarter
Dec 28
Full
Jan 4
Last Quarter
Jan 11
New

Hourly Weather History & Observations

Time (EST) Temp. Windchill Dew Point Humidity Pressure Visibility Wind Dir Wind Speed Gust Speed Precip Events Conditions
12:54 AM 35.1 °F - 30.9 °F 85% 29.88 in 10.0 mi Calm Calm - N/A   Clear
1:54 AM 30.9 °F - 30.0 °F 96% 29.89 in 10.0 mi Calm Calm - N/A   Clear
2:54 AM 33.1 °F - 30.0 °F 89% 29.90 in 10.0 mi Calm Calm - N/A   Clear
3:54 AM 30.0 °F 26.5 °F 28.0 °F 92% 29.92 in 10.0 mi North 3.5 mph - N/A   Clear
4:54 AM 30.9 °F - 27.0 °F 85% 29.94 in 10.0 mi Calm Calm - N/A   Clear
5:54 AM 32.0 °F - 28.0 °F 85% 29.94 in 10.0 mi Calm Calm - N/A   Clear
6:54 AM 33.1 °F 27.7 °F 30.0 °F 89% 29.96 in 10.0 mi SSW 5.8 mph - N/A   Clear
7:54 AM 33.1 °F 30.0 °F 28.9 °F 85% 29.99 in 10.0 mi SW 3.5 mph - N/A   Clear
8:54 AM 41.0 °F - 33.1 °F 73% 30.01 in 10.0 mi Calm Calm - N/A   Clear
9:54 AM 48.9 °F - 33.1 °F 54% 30.02 in 10.0 mi SW 6.9 mph - N/A   Clear
10:54 AM 57.0 °F - 35.1 °F 44% 30.01 in 10.0 mi WSW 10.4 mph - N/A   Clear
11:54 AM 61.0 °F - 37.0 °F 41% 30.01 in 10.0 mi West 13.8 mph - N/A   Clear
12:54 PM 64.0 °F - 35.1 °F 34% 29.99 in 10.0 mi West 9.2 mph - N/A   Clear
1:54 PM 63.0 °F - 33.1 °F 33% 29.98 in 10.0 mi West 8.1 mph - N/A   Clear
2:54 PM 63.0 °F - 34.0 °F 34% 29.99 in 10.0 mi WSW 6.9 mph - N/A   Clear
3:54 PM 61.0 °F - 35.1 °F 38% 30.01 in 10.0 mi WSW 3.5 mph - N/A   Clear
4:54 PM 57.9 °F - 36.0 °F 44% 30.02 in 10.0 mi Calm Calm - N/A   Clear
5:54 PM 51.1 °F - 36.0 °F 56% 30.04 in 10.0 mi Calm Calm - N/A   Clear
6:54 PM 48.9 °F - 37.0 °F 64% 30.06 in 10.0 mi SW 3.5 mph - N/A   Clear
7:54 PM 46.0 °F - 37.0 °F 71% 30.08 in 10.0 mi Calm Calm - N/A   Clear
8:54 PM 44.1 °F - 37.0 °F 76% 30.09 in 10.0 mi Calm Calm - N/A   Clear
9:54 PM 43.0 °F - 36.0 °F 76% 30.12 in 10.0 mi Calm Calm - N/A   Clear
10:54 PM 37.9 °F - 34.0 °F 86% 30.12 in 10.0 mi Calm Calm - N/A   Clear
11:54 PM 39.9 °F - 35.1 °F 83% 30.12 in 10.0 mi Calm Calm - N/A   Clear